Location: La L�cherette
(46.4204°N, 7.1052°E)
Time: 13:46:40
(UTC+00:00)

Daily predictions for brighter satellites

Satellite Brightness Start Highest point End
(mag) Time Altitude Azimuth Time Altitude Azimuth Time Altitude Azimuth
Cosmos 1745 Rocket 4.1 19:16:25 10° N 19:22:34 61° ENE 19:28:38 10° SSE
BREEZE-M DEB (TANK) 3.9 19:24:53 10° W 19:29:09 77° S 19:36:37 10° ESE
Cosmos 1666 Rocket 4.3 19:26:20 10° N 19:30:23 35° ENE 19:34:23 10° SE
USA 307 4.3 19:30:05 10° NW 19:34:01 34° NNE 19:37:57 10° E
Cosmos 1437 4.5 19:33:48 10° ESE 19:35:14 13° E 19:36:41 10° ENE
Cosmos 968 Rocket 3.9 19:32:08 10° SSW 19:37:22 69° WNW 19:42:36 10° NNE
NOSS 3-3 (A) 4.2 19:32:52 10° S 19:38:09 41° ESE 19:44:06 10° NE
NOSS 3-3 (C) 4.2 19:32:58 10° S 19:38:16 41° ESE 19:44:12 10° NE
Intercosmos 24 3.7 19:37:23 10° S 19:41:02 61° E 19:44:35 10° NNE
ATLAS 2AS CENTAUR R/B 4.4 19:34:54 10° NW 19:41:13 27° NNE 19:47:10 10° E
Cosmos 1354 Rocket 4.1 19:36:26 10° S 19:41:29 53° ESE 19:46:36 10° NNE
S3M 4.0 19:37:10 10° S 19:43:32 78° E 19:49:52 10° N
SJ 16-02 3.3 19:42:38 10° ESE 19:44:33 13° E 19:46:29 10° ENE
USA 245 4.5 19:44:08 10° E 19:44:38 10° ENE 19:45:09 10° NE
Sich 1 3.0 19:40:18 10° N 19:44:40 82° E 19:49:01 10° S
OBJECT-B 2.3 19:43:26 10° SSW 19:46:27 36° W 19:49:31 10° NNW
Meteor 1-26 Rocket 4.5 19:42:00 10° SSE 19:47:25 48° E 19:52:42 10° NNE
USA 308 4.1 19:43:42 10° NW 19:47:43 37° NNE 19:51:44 10° E
SPOT 1/Viking Rocket 4.4 19:43:00 10° SE 19:47:43 36° ENE 19:52:26 10° N
Cosmos 2315 Rocket 4.4 19:43:17 10° SSE 19:49:19 47° E 19:55:24 10° NNE
Cosmos 1500 4.3 19:50:14 10° NNE 19:53:32 28° ENE 19:56:07 14° SE
BREEZE M DEB (TANK) 2.9 19:50:48 10° W 19:57:00 54° N 19:59:27 10° E
Terra 3.8 19:54:37 10° E 19:57:26 16° ENE 20:00:14 10° NNE
Cosmos 2082 Rocket 3.6 19:54:47 10° N 19:59:24 25° NE 20:03:59 10° ESE
OE (NEXTSAT) 4.3 19:57:54 10° W 20:01:21 70° SSW 20:04:07 15° ESE
Cosmos 1151 Rocket 3.2 19:57:39 10° S 20:01:54 55° E 20:06:12 10° NNE
SPOT 3 Rocket 3.5 19:57:04 10° SSE 20:02:12 75° ENE 20:07:22 10° N
X-37B 1.3 19:59:40 10° W 20:02:43 41° SSW 20:04:43 18° SE
CREW DRAGON DEMO-1 DEB 3.8 20:00:31 10° NW 20:02:59 34° NNE 20:05:17 11° E
SPOT 5 4.4 19:59:20 12° ESE 20:03:02 26° ENE 20:07:20 10° N
Cosmos 1437 Rocket 4.2 19:59:25 10° SW 20:03:05 40° WNW 20:06:52 10° N
COSMOS 2406 3.7 20:00:40 10° NNW 20:06:08 47° ENE 20:10:34 15° SE
Cosmos 2084 3.4 20:02:22 10° SSW 20:06:24 57° SE 20:10:34 10° NE
Resurs 01 Rocket 1.6 20:02:25 10° SSE 20:06:52 90° WNW 20:11:20 10° NNW
USA 290 3.6 20:05:20 10° NW 20:08:20 35° WSW 20:11:17 10° S
Cosmos 1933 3.9 20:09:37 10° SSW 20:13:36 59° W 20:17:36 10° N
Cosmos 773 Rocket 4.0 20:13:11 10° NNW 20:18:33 83° ENE 20:22:41 17° SSE
MetOp-B 4.1 20:15:10 13° SSE 20:19:58 83° ENE 20:25:22 10° NNW
Cosmos 1271 Rocket 4.2 20:19:16 19° ESE 20:20:30 22° E 20:23:38 10° NE
Cosmos 2278 Rocket 2.5 20:19:16 10° S 20:24:37 46° ESE 20:30:00 10° NE
Spot 2 Rocket 3.7 20:22:06 19° SE 20:25:39 56° ENE 20:30:36 10° N
Cosmos 1602 4.2 20:22:15 10° NNW 20:26:04 59° W 20:29:33 12° S
BREEZE-M DEB (TANK) 2.2 20:24:23 10° WNW 20:26:30 39° N 20:27:56 16° ENE
Cosmos 1782 2.9 20:23:16 10° SSW 20:27:16 77° W 20:31:16 10° N
Landsat 7 4.0 20:23:02 13° S 20:27:19 75° WSW 20:32:06 10° NNW
IGS 5A 3.9 20:24:31 12° S 20:28:17 60° W 20:32:24 10° NNW
USA 305 3.4 20:24:08 10° NW 20:28:21 56° NNE 20:31:23 18° E
GPS 2-04 Rocket1 4.4 20:26:10 10° SW 20:28:41 17° S 20:28:41 17° S
Cosmos 1844 Rocket 4.4 20:24:06 10° WSW 20:29:10 35° NW 20:34:18 10° NNE
Cosmos 1242 Rocket 4.0 20:26:35 10° SW 20:29:57 38° WNW 20:33:17 10° N
Cosmos 1515 Rocket 3.7 20:29:37 19° SSE 20:32:37 53° E 20:36:54 10° NNE
ERS-1 Rocket 3.5 20:30:20 21° SE 20:33:19 44° ENE 20:38:05 10° N
BREEZE-M DEB (TANK) 4.1 20:26:29 10° WNW 20:33:51 36° SW 20:35:39 21° S
CZ-4C R/B 3.0 20:30:29 10° NW 20:37:45 89° WSW 20:43:47 21° SE
Cosmos 1633 Rocket 3.7 20:35:34 10° NNW 20:39:52 53° W 20:43:38 13° S
Meteor 1-11 Rocket 4.4 20:38:58 10° N 20:44:42 45° ENE 20:47:54 24° SE
deb Kosmos-1763 4.0 20:43:13 10° NNW 20:46:45 65° ENE 20:47:57 37° SE
ATLAS 5 CENTAUR R/B 3.4 20:41:37 10° NW 20:46:55 37° WSW 20:51:47 15° S
USA 306 3.0 20:43:27 10° NW 20:47:42 70° NNE 20:49:58 27° ESE
Cosmos 1812 2.6 20:47:18 22° S 20:49:43 87° E 20:53:36 10° N
Cosmos 1328 Rocket 4.1 20:45:24 10° SSW 20:49:46 58° WNW 20:54:08 10° N
SWARM A 4.3 20:47:58 10° N 20:51:17 75° W 20:52:43 31° S
Cosmos 1777 Rocket 4.0 20:46:22 10° SSW 20:51:34 82° WNW 20:56:48 10° NNE
Cosmos 1470 Rocket 3.8 20:47:44 10° NNW 20:52:12 70° W 20:55:01 22° S
Cosmos 1340 Rocket 4.5 20:51:21 10° NNE 20:54:30 21° ENE 20:55:28 19° E
ARIANE 5 R/B 2.5 20:52:22 28° SSE 20:54:39 85° WSW 20:59:01 10° NNW
CARTOSAT-1 3.5 20:56:43 30° S 20:58:51 83° WSW 21:03:11 10° NNW
Cosmos 1666 2.5 20:55:30 10° N 20:59:15 84° E 21:00:28 41° SSE
Cosmos 1833 Rocket 2.9 20:58:22 10° NNW 21:04:00 68° WSW 21:07:04 27° S
Meteor 1-5 Rocket 4.2 20:59:51 10° NNW 21:05:14 72° W 21:08:22 25° S
BREEZE-M R/B 3.0 21:04:07 10° W 21:06:27 41° N 21:07:49 22° NE
Cosmos 1933 Rocket 3.6 21:02:07 10° NNW 21:06:27 75° W 21:08:26 32° S
Cosmos 2154 Rocket 4.2 21:00:23 10° N 21:06:38 58° ENE 21:09:43 30° SE
Cosmos 923 Rocket 4.3 21:02:48 10° NNW 21:07:59 54° ENE 21:10:12 32° SE
Cosmos 1898 Rocket 4.4 21:07:15 28° ESE 21:07:59 29° E 21:12:31 10° NE
Meteor 1-10 Rocket 4.1 21:05:30 23° S 21:09:08 79° E 21:14:49 10° NNE
Cosmos 1536 3.4 21:05:54 10° N 21:09:47 43° ENE 21:10:33 38° ESE
Cosmos 2184 Rocket 3.9 21:07:50 10° N 21:14:07 89° WSW 21:17:33 28° S
Cosmos 1743 4.0 21:10:51 10° NNE 21:14:07 26° ENE 21:14:28 25° E
USA 307 2.8 21:10:04 10° WNW 21:14:22 86° SW 21:15:37 45° SE
H-2A R/B 3.5 21:13:19 10° NNE 21:17:28 58° ESE 21:18:18 47° SSE
Cosmos 2074 Rocket 4.0 21:12:17 10° N 21:18:37 81° W 21:22:13 27° S
NOSS 3-4 (A) 3.8 21:12:57 10° NW 21:19:58 90° E 21:24:07 31° SE
NOSS 3-4 (C) 3.8 21:13:04 10° NW 21:20:04 89° NE 21:24:12 31° SE
Cosmos 990 Rocket 4.3 21:20:02 38° SE 21:21:16 45° ESE 21:26:17 10° NNE
SJ 16-02 1.5 21:19:30 20° SSW 21:22:30 71° WNW 21:26:57 10° NNE
Nadezhda 1 Rocket 4.0 21:19:52 30° S 21:23:08 70° E 21:29:21 10° NNE
Cosmos 2297 4.3 21:22:46 34° SE 21:23:36 35° ESE 21:28:43 10° NE
Cosmos 1733 Rocket 4.3 21:23:31 10° NNE 21:27:14 27° ENE 21:27:49 26° E
USA 308 2.8 21:23:41 10° WNW 21:27:58 72° SW 21:28:43 56° SSE
ATLAS 2AS CENTAUR R/B 2.9 21:26:07 10° NW 21:33:33 70° NE 21:37:04 31° SE
Terra 1.8 21:33:01 42° S 21:34:35 75° WSW 21:39:22 10° NNW
Iridium 4 Rocket 4.2 21:30:58 21° SSW 21:34:46 60° W 21:40:39 10° N
Cosmos 1544 3.1 21:33:31 10° N 21:37:03 61° ENE 21:37:03 61° ENE
SPOT 5 3.6 21:38:33 30° SSW 21:40:46 49° W 21:45:54 10° NNW
Cosmos 1610 Rocket 4.4 21:35:19 10° N 21:41:29 83° W 21:44:05 37° S
ERBS 4.3 21:39:21 10° NNW 21:42:05 23° NNE 21:43:15 19° NE
Cosmos 2082 Rocket 2.4 21:38:23 10° NNW 21:43:57 64° WSW 21:45:50 40° S
Cosmos 158 Rocket 4.3 21:40:43 10° NNW 21:45:28 53° WSW 21:46:51 39° SSW
Cosmos 2112 Rocket 4.0 21:41:19 10° NNW 21:46:42 75° ENE 21:48:11 48° SE
Cosmos 2228 Rocket 3.5 21:45:34 36° SW 21:47:10 60° WNW 21:51:36 10° N
Cosmos 44 3.6 21:44:57 10° NNW 21:50:25 68° NE 21:51:59 45° ESE
Cosmos 1271 Rocket 4.4 21:54:21 20° WSW 21:56:18 31° WNW 21:59:55 10° N
Cosmos 2084 Rocket 4.0 21:54:15 10° NNW 21:58:25 51° NE 21:59:14 44° E
Meteor 1-27 Rocket 4.1 21:58:45 29° SSW 22:01:45 64° WNW 22:07:40 10° N
Cosmos 2341 Rocket 4.0 21:55:36 10° N 22:02:02 78° E 22:04:08 45° SSE
Cosmos 1515 4.1 22:04:29 54° NE 22:04:29 54° NE 22:07:40 10° NNE
USA 305 4.0 22:04:18 10° WNW 22:07:27 32° WSW 22:07:27 32° WSW
Cosmos 2278 Rocket 3.8 22:03:49 10° WSW 22:08:51 33° NW 22:13:57 10° NNE
Cosmos 1937 Rocket 3.3 22:09:32 62° SSE 22:10:12 71° ESE 22:15:22 10° NNE
Cosmos 1862 Rocket 3.8 22:10:39 54° E 22:10:39 54° E 22:14:41 10° NNE
Milstar 3 4.5 22:03:27 10° WSW 22:10:46 24° SSW 22:10:46 24° SSW
SL-24 R/B - RUBIN 2 3.7 22:06:54 10° NW 22:12:24 84° SW 22:13:07 66° SSE
Cosmos 1680 Rocket 3.8 22:08:35 10° NNW 22:13:49 58° WSW 22:14:52 49° SSW
Cosmos 1943 Rocket 2.1 22:13:54 56° SSE 22:14:49 66° ESE 22:20:23 10° NNE
Cosmos 2218 Rocket 4.1 22:10:15 10° N 22:16:31 67° E 22:18:16 47° SE
Cosmos 2369 Rocket 2.8 22:17:10 37° ESE 22:17:10 37° ESE 22:22:13 10° NE
Centaur D AC-29 4.5 21:41:38 10° WSW 22:18:52 28° SSW 22:20:13 28° S
Meteor 1-19 Rocket 4.1 22:19:24 58° SE 22:20:08 66° E 22:25:30 10° NNE
Gbstr 26 Del rocket 4.1 22:13:08 10° WNW 22:20:34 78° NNE 22:23:48 31° ESE
Cosmos 1238 Rocket 3.6 22:17:51 10° N 22:24:04 87° W 22:25:13 59° S
Cosmos 858 Rocket 4.4 22:24:20 62° SSW 22:25:15 89° ESE 22:30:32 10° NNE
CZ-4C R/B 4.4 22:19:59 10° WNW 22:25:53 25° WSW 22:28:58 20° SW
Meteor 2-9 Rocket 4.2 22:21:39 10° N 22:27:29 82° E 22:28:36 59° SSE
Okean 1 3.5 22:29:36 71° NNW 22:29:36 71° NNW 22:33:17 10° N
Okean 1-7 4.3 22:31:00 28° ENE 22:31:00 28° ENE 22:34:05 10° NNE
Cosmos 1340 Rocket 3.9 22:27:19 10° NNW 22:31:03 35° W 22:31:04 35° W
Cosmos 1818 3.4 22:27:53 10° NW 22:33:24 85° SW 22:34:12 66° SSE
Cosmos 1707 Rocket 4.3 22:32:59 42° WSW 22:33:38 45° WNW 22:37:53 10° N
DNEPR-1 R/B 4.0 22:34:45 49° SW 22:36:24 88° NW 22:41:23 10° NE
SL-8 Rocket 4.0 22:33:34 10° NNW 22:39:54 73° W 22:41:32 51° SSW
ALOS 2 2.8 22:41:06 61° ENE 22:41:06 61° ENE 22:45:25 10° N
Meteor 2-4 Rocket 3.7 22:47:04 60° SE 22:47:49 67° E 22:53:24 10° NNE
Cosmos 1743 4.5 22:46:37 10° NW 22:49:32 24° W 22:49:32 24° W
SL-27 R/B 4.4 22:51:43 10° N 22:53:51 24° NE 22:53:51 24° NE
BREEZE-M DEB (TANK) 4.1 22:41:39 10° WNW 22:57:01 86° SSW 22:58:40 48° ESE
SL-08 R/B 4.5 22:50:53 10° N 22:57:07 77° E 22:58:29 56° SSE
Cosmos 1975 3.5 22:57:13 10° NNW 23:00:28 49° NW 23:00:28 49° NW
SJ 16-02 4.4 23:01:20 10° WNW 23:01:57 10° NW 23:02:35 10° NW
RESURS DK-1 3.0 22:59:36 10° NNW 23:03:31 51° NE 23:03:31 51° NE
Cosmos 2150 Rocket 4.3 23:04:29 52° ESE 23:04:29 52° ESE 23:09:36 10° NNE
Cosmos 1733 Rocket 4.4 23:01:15 10° NNW 23:04:54 29° W 23:04:54 29° W
Cosmos 1461 3.3 23:07:22 67° WNW 23:07:38 70° NW 23:12:16 10° NNE
Cosmos 372 Rocket 4.0 23:07:02 60° WSW 23:07:42 67° WNW 23:12:48 10° NNE
Cosmos 1833 4.4 23:02:18 10° NNW 23:08:03 65° ENE 23:09:23 50° ESE
Cosmos 2242 Rocket 3.6 23:09:01 75° NNE 23:09:01 75° NNE 23:13:10 10° N
SeaSat 1 3.5 23:04:44 10° NE 23:08:32 32° E 23:08:32 32° E
Meteor 1-12 Rocket 4.5 23:05:48 10° N 23:11:38 62° ENE 23:12:43 52° ESE
ISS -1.0 23:18:16 15° ENE 23:18:16 15° ENE 23:18:54 10° ENE
Cosmos 468 4.3 23:12:44 10° NNW 23:18:03 85° ENE 23:18:27 76° SE
USA 215 3.4 23:13:57 19° ESE 23:18:48 70° NNE 23:25:19 10° NW
Cosmos 494 Rocket 4.0 23:14:22 10° NNW 23:19:33 67° ENE 23:20:07 61° ESE
Cosmos 1908 Rocket 4.0 23:15:40 10° NNW 23:19:43 53° WNW 23:19:43 53° WNW
Okean 2 Rocket 4.3 23:19:45 10° N 23:23:43 32° ENE 23:23:56 31° E
ATLAS 2AS CENTAUR R/B 3.7 23:17:54 10° NW 23:23:52 29° WSW 23:24:29 28° WSW
Nimbus 7 Rocket 4.3 23:19:38 10° NNE 23:25:33 90° ESE 23:26:37 63° SSW
Cosmos 1867 3.4 23:25:56 76° S 23:26:18 81° SE 23:31:48 10° NE
Cosmos 1125 Rocket 3.5 23:26:50 63° ESE 23:26:52 63° ESE 23:32:02 10° NNE
Cosmos 44 Rocket 4.2 23:24:26 10° NNW 23:29:31 47° NE 23:31:23 33° E
Cosmos 1378 4.1 23:34:53 46° NNE 23:34:53 46° NNE 23:37:35 10° N
ATLAS CENTAUR R/B 2.5 23:38:29 34° NE 23:38:29 34° NE 23:40:47 10° NE
Cosmos 2344 4.3 23:30:39 10° NW 23:39:55 84° NE 23:51:08 15° SE
Cosmos 1821 Rocket 4.1 23:33:47 10° NNW 23:40:10 70° W 23:41:25 56° SSW
Cosmos 1934 Rocket 4.0 23:34:39 10° N 23:40:48 70° E 23:42:10 53° SE
USA 281 4.4 23:36:59 13° ESE 23:42:14 37° NE 23:48:10 10° NNW
Cosmos 1703 Rocket 4.5 23:48:52 39° WNW 23:48:52 39° WNW 23:52:58 10° N
Okean 3 3.7 23:50:46 65° NW 23:50:46 65° NW 23:54:35 10° N
Cosmos 1782 Rocket 4.3 23:47:35 10° NNW 23:51:22 44° WNW 23:51:22 44° WNW
Lacrosse 5 3.1 23:54:51 30° ESE 23:54:51 30° ESE 23:58:17 10° ENE
